Location: Great Snoring
(52.8667°N, 0.8833°E)
Time: 14:22:25
(UTC+00:00)

BlueWalker 3 - Pass Details

Date: 19 May 2025
Orbit: 460 x 472 km, 53.2° (Epoch: 17 June)

Event Time Altitude Azimuth Distance (km) Brightness Sun altitude
Rises 22:40:46 0° 280° (W) 2,497 5.9 -15.5°
Reaches altitude 10° 22:44:06 10° 248° (WSW) 1,620 4.5 -15.6°
Enters shadow 22:45:25 12° 227° (SW) 1,512 4.1 -15.7°
